[[{"header":{"parameterUnit":"m.s-1","parameterCategory":1,"la1":30.2991,"la2":30.254,"lo1":-89.0895,"lo2":-89.0444,"dy":0.0017,"dx":0.0017,"nx":28,"ny":28,"refTime":"2023-03-30T21:00:00:Z","depth":0,"parameterNumber":2,"parameterNumberName":"U-component_of_WINDS"},"data":[0,0,0,0,0,0,0,0,0,0,0,0,0,0,0,0,0,0,0,0,0,0,0,0,0,0,0,0,0,0,0,0,0,0,0,0,0,0,0,0,0,0,0,0,0,0,0,0,0,0,0,0,0,0,0,0,0,0,-0.1318,-0.1318,0,-0.1326,-0.1326,-0.1326,-0.1345,-0.1346,-0.1346,-0.1346,-0.1354,-0.1353,-0.1353,0,0,0,0,0,0,0,0,0,0,0,0,0,-0.1317,-0.1317,-0.1318,-0.1318,-0.1318,-0.1326,-0.1326,-0.1326,-0.1345,-0.1346,-0.1346,-0.1347,-0.1354,-0.1353,-0.1353,0,0,0,0,0,0,0,0,0,0,0,0,0,-0.1321,-0.1317,-0.1318,-0.1328,-0.1329,-0.1326,-0.1326,-0.1326,-0.1345,-0.1346,-0.1346,-0.1347,-0.1354,-0.1353,-0.1353,-0.134,0,0,-0.1352,-0.1352,0,0,0,0,0,0,0,0,-0.1321,-0.1321,-0.1327,-0.1328,-0.1329,-0.1335,-0.1329,-0.1331,-0.1345,-0.1339,-0.1346,-0.1347,-0.1347,-0.1347,-0.1347,-0.134,-0.134,-0.1352,-0.1352,-0.1352,-0.1352,0,0,0,0,0,0,0,-0.132,-0.132,-0.1321,-0.1327,-0.1328,-0.1332,-0.1334,-0.1329,-0.1339,-0.134,-0.1341,-0.1342,-0.1348,-0.1348,-0.1348,-0.134,-0.1352,-0.1352,-0.1352,-0.1352,-0.1322,-0.1321,0,0,0,0,0,0,-0.1319,-0.132,-0.1321,-0.1321,-0.1326,-0.1332,-0.1333,-0.1332,-0.134,-0.1341,-0.1341,-0.1343,-0.1348,-0.1348,-0.1348,-0.1332,-0.1352,-0.1352,-0.1352,-0.1323,-0.1322,-0.1321,0,0,0,0,0,0,-0.1319,-0.1319,-0.132,-0.1321,-0.1322,-0.1331,-0.133,-0.1332,-0.1332,-0.1341,-0.1343,-0.1339,-0.1348,-0.1348,-0.1342,-0.1333,-0.1352,-0.1351,-0.1323,-0.1322,-0.1322,-0.1301,0,0,0,0,0,0,-0.1318,-0.1318,-0.1314,-0.1321,-0.1322,-0.1314,-0.133,-0.1332,-0.1332,-0.1334,-0.134,-0.1341,-0.1349,-0.1342,-0.1341,-0.1333,-0.1351,-0.1324,-0.1323,-0.1322,-0.1303,-0.13,-0.1297,0,0,0,0,0,-0.1318,-0.1307,-0.1313,-0.1313,-0.1316,-0.1313,-0.1314,-0.1323,-0.1331,-0.1326,-0.1332,-0.1341,-0.1334,-0.1341,-0.1341,-0.1332,-0.1325,-0.1323,-0.1322,-0.1304,-0.13,-0.1297,0,0,0,0,0,0,-0.1298,-0.1308,-0.1315,-0.1306,-0.1309,-0.1317,-0.1311,-0.1319,-0.1319,-0.1321,-0.1332,-0.1333,-0.1325,-0.1328,-0.1335,-0.1319,-0.1331,-0.1329,-0.1317,-0.1314,-0.1311,-0.131,-0.1351,0,0,0,0,0,-0.1293,-0.129,-0.1299,-0.129,-0.1292,-0.1301,-0.13,-0.1307,-0.131,-0.1311,-0.1316,-0.1319,-0.1317,-0.1316,-0.1315,-0.1303,-0.1305,-0.1297,-0.1294,-0.1292,-0.129,-0.1284,-0.1281,-0.1317,-0.1317,-0.1317,0,0,-0.1281,-0.1287,-0.1284,-0.1287,-0.129,-0.1286,-0.1302,-0.1298,-0.1296,-0.1311,-0.1305,-0.1308,-0.1312,-0.1303,-0.1299,-0.1305,-0.1281,-0.129,-0.1288,-0.1288,-0.1283,-0.1279,-0.1276,-0.1316,-0.1316,-0.1316,0,0,-0.1259,-0.1263,-0.1256,-0.1259,-0.1263,-0.1269,-0.1268,-0.1274,-0.1278,-0.1272,-0.1283,-0.128,-0.1278,-0.1279,-0.128,-0.1259,-0.1267,-0.1258,-0.1243,-0.1237,-0.1234,-0.1232,-0.1224,-0.1221,-0.1256,-0.1256,-0.1256,0,-0.1244,-0.124,-0.1251,-0.1247,-0.1247,-0.1261,-0.1254,-0.1256,-0.126,-0.126,-0.1266,-0.1263,-0.1266,-0.1258,-0.1252,-0.1253,-0.1251,-0.1257,-0.1234,-0.1232,-0.1229,-0.1222,-0.1219,-0.1255,-0.1255,-0.1255,-0.1255,0,-0.1222,-0.1219,-0.1213,-0.1216,-0.1216,-0.121,-0.122,-0.1218,-0.1225,-0.1231,-0.1225,-0.1229,-0.1229,-0.1228,-0.1234,-0.122,-0.1223,-0.1232,-0.1244,-0.1225,-0.1218,-0.1215,-0.1253,-0.1254,-0.1254,-0.1254,0,0,-0.1187,-0.1196,-0.1194,-0.1196,-0.1202,-0.12,-0.1194,-0.1195,-0.1193,-0.1195,-0.1191,-0.1188,-0.1196,-0.1197,-0.1204,-0.1198,-0.1181,-0.1208,-0.1208,-0.1202,-0.1165,-0.1158,-0.1155,-0.1187,-0.1186,-0.1186,-0.1164,0,-0.1165,-0.1157,-0.1167,-0.1156,-0.1154,-0.1167,-0.1162,-0.1165,-0.117,-0.1169,-0.1174,-0.1172,-0.1183,-0.1183,-0.1179,-0.1184,-0.1173,-0.1186,-0.1182,-0.1182,-0.1181,-0.1151,-0.1144,-0.1124,-0.1162,-0.1161,-0.1161,0,-0.1139,-0.1141,-0.113,-0.1137,-0.1136,-0.1132,-0.1133,-0.1131,-0.1135,-0.1139,-0.114,-0.1148,-0.1143,-0.1155,-0.1148,-0.1156,-0.1155,-0.1158,-0.1157,-0.1157,-0.117,-0.115,-0.1117,-0.1114,-0.1157,-0.1157,-0.1158,0,-0.1114,-0.1114,-0.1107,-0.1108,-0.1116,-0.1113,-0.1116,-0.112,-0.1119,-0.112,-0.112,-0.112,-0.112,-0.112,-0.1128,-0.1137,-0.112,-0.1133,-0.1123,-0.1123,-0.1119,-0.1119,-0.1085,-0.1119,-0.1119,-0.1119,-0.1119,0,-0.109,-0.1082,-0.1096,-0.1092,-0.1084,-0.1095,-0.1087,-0.1092,-0.1095,-0.1092,-0.1104,-0.11,-0.1112,-0.1109,-0.1116,-0.1109,-0.1109,-0.1112,-0.1113,-0.111,-0.111,-0.111,-0.1111,-0.1118,-0.1118,-0.1118,-0.1118,0,-0.106,-0.1069,-0.1063,-0.1071,-0.1073,-0.1067,-0.1073,-0.107,-0.1076,-0.1071,-0.1071,-0.108,-0.1078,-0.1086,-0.1086,-0.109,-0.1079,-0.1084,-0.1078,-0.1079,-0.1069,-0.107,-0.1034,-0.103,-0.1066,-0.1066,-0.1065,0,-0.1044,-0.1039,-0.1046,-0.1045,-0.1047,-0.1045,-0.1045,-0.1056,-0.1055,-0.1059,-0.1055,-0.1054,-0.1054,-0.105,-0.1056,-0.1055,-0.1059,-0.1047,-0.1059,-0.1057,-0.1059,-0.1059,-0.1058,-0.1044,-0.1044,-0.1043,-0.1043,0,-0.1013,-0.1018,-0.1017,-0.1018,-0.1018,-0.1019,-0.1021,-0.1019,-0.1031,-0.1029,-0.1028,-0.1027,-0.1027,-0.1026,-0.1026,-0.1029,-0.1038,-0.1039,-0.1037,-0.1034,-0.1031,-0.1032,-0.1071,-0.104,-0.104,-0.104,-0.1041,-0.1041,-0.099,-0.0986,-0.099,-0.0989,-0.0992,-0.0994,-0.0991,-0.0996,-0.0995,-0.0996,-0.1002,-0.0999,-0.1003,-0.1005,-0.1006,-0.1004,-0.101,-0.1006,-0.1006,-0.1004,-0.1003,-0.1031,-0.1004,-0.1004,-0.1004,-0.1005,-0.1005,0,-0.096,-0.0963,-0.0962,-0.0965,-0.0964,-0.0973,-0.0975,-0.0974,-0.0971,-0.0974,-0.0974,-0.0972,-0.097,-0.0977,-0.0976,-0.0973,-0.0977,-0.0973,-0.0973,-0.0973,-0.0997,-0.0999,-0.0969,-0.0969,-0.0969,-0.0969,-0.0969,-0.0969,-0.0944,-0.0938,-0.0943,-0.0938,-0.0942,-0.0939,-0.094,-0.0941,-0.0943,-0.0941,-0.094,-0.0944,-0.0948,-0.0948,-0.0947,-0.0949,-0.0948,-0.0942,-0.0946,-0.0968,-0.0972,-0.0975,-0.0977,-0.0942,-0.0942,-0.0922,-0.0921,-0.0921]},{"header":{"parameterUnit":"m.s-1","parameterCategory":1,"la1":30.2991,"la2":30.254,"lo1":-89.0895,"lo2":-89.0444,"dy":0.0017,"dx":0.0017,"nx":28,"ny":28,"refTime":"2023-03-30T21:00:00:Z","depth":0,"parameterNumber":3,"parameterNumberName":"V-component_of_WINDS"},"data":[0,0,0,0,0,0,0,0,0,0,0,0,0,0,0,0,0,0,0,0,0,0,0,0,0,0,0,0,0,0,0,0,0,0,0,0,0,0,0,0,0,0,0,0,0,0,0,0,0,0,0,0,0,0,0,0,0,0,6.0823,6.0825,0,6.1036,6.1038,6.104,6.1064,6.1061,6.1059,6.1057,6.127,6.1278,6.1285,0,0,0,0,0,0,0,0,0,0,0,0,0,6.0432,6.0439,6.0822,6.0825,6.0828,6.1035,6.1038,6.1041,6.1064,6.1061,6.1059,6.1056,6.1268,6.1277,6.1286,0,0,0,0,0,0,0,0,0,0,0,0,0,6.0619,6.0442,6.0822,6.0864,6.087,6.1035,6.1038,6.1042,6.1065,6.1061,6.1058,6.1055,6.1265,6.1276,6.1287,6.1422,0,0,6.1322,6.1327,0,0,0,0,0,0,0,0,6.0608,6.0633,6.0855,6.0862,6.0869,6.102,6.0979,6.1169,6.1065,6.0991,6.1057,6.1054,6.1189,6.1207,6.1254,6.1432,6.1442,6.1323,6.133,6.1335,6.1339,0,0,0,0,0,0,0,6.0596,6.0624,6.0907,6.0859,6.0867,6.0872,6.0895,6.1015,6.1105,6.0997,6.0999,6.1024,6.1192,6.1242,6.1259,6.1445,6.1323,6.1333,6.134,6.1345,6.1748,6.1751,0,0,0,0,0,0,6.0575,6.0613,6.09,6.0913,6.0728,6.0881,6.0907,6.0974,6.1104,6.1121,6.1027,6.1025,6.1224,6.1245,6.1266,6.1436,6.1335,6.1346,6.1353,6.1744,6.1749,6.1753,0,0,0,0,0,0,6.0567,6.0601,6.0891,6.0764,6.0801,6.0892,6.0967,6.098,6.1031,6.1127,6.1142,6.1062,6.1223,6.125,6.1385,6.1443,6.1351,6.1362,6.174,6.1745,6.1751,6.1773,0,0,0,0,0,0,6.0556,6.0597,6.065,6.0765,6.0808,6.1007,6.0971,6.0987,6.1051,6.105,6.1164,6.1179,6.1222,6.1367,6.1396,6.1457,6.1371,6.1735,6.1742,6.1749,6.1768,6.1779,6.1789,0,0,0,0,0,6.0541,6.0646,6.0653,6.0687,6.0876,6.101,6.1035,6.1084,6.1056,6.111,6.1171,6.1176,6.1432,6.1381,6.1413,6.1479,6.1731,6.174,6.1748,6.1763,6.1777,6.1788,0,0,0,0,0,0,6.0534,6.0662,6.0671,6.0816,6.0903,6.1014,6.1083,6.1096,6.1191,6.1186,6.124,6.1266,6.1399,6.1452,6.1393,6.1618,6.1579,6.1594,6.1578,6.1592,6.1603,6.1588,6.138,0,0,0,0,0,6.0549,6.0649,6.0755,6.0873,6.0916,6.0992,6.1052,6.1083,6.1173,6.1209,6.1281,6.1368,6.1468,6.1533,6.163,6.1775,6.1801,6.1836,6.1847,6.1855,6.1868,6.1951,6.1968,6.1781,6.1781,6.1781,0,0,6.0582,6.0664,6.0723,6.0874,6.0944,6.1045,6.1023,6.113,6.1205,6.1225,6.1358,6.1413,6.1514,6.1655,6.172,6.1703,6.1925,6.1866,6.1871,6.188,6.1961,6.1979,6.1995,6.1787,6.1786,6.1785,0,0,6.0693,6.0765,6.0873,6.0945,6.1053,6.1103,6.1129,6.124,6.1278,6.1412,6.143,6.152,6.169,6.1763,6.1821,6.1962,6.1971,6.1992,6.2047,6.2128,6.2142,6.2156,6.2208,6.2226,6.2005,6.2005,6.2005,0,6.072,6.0875,6.0926,6.1035,6.11,6.1125,6.1235,6.1301,6.1434,6.1479,6.1458,6.1676,6.1745,6.1904,6.1939,6.1985,6.2017,6.198,6.2136,6.215,6.2163,6.2214,6.2233,6.2007,6.2007,6.2006,6.2006,0,6.0903,6.101,6.1083,6.1215,6.1289,6.1397,6.1464,6.1533,6.1557,6.1609,6.1747,6.1831,6.1947,6.1986,6.201,6.215,6.2136,6.2125,6.2087,6.2183,6.2231,6.2251,6.201,6.2009,6.2008,6.2008,0,0,6.1015,6.1175,6.1202,6.1263,6.1385,6.1468,6.1577,6.1693,6.1752,6.1842,6.1936,6.2081,6.2073,6.214,6.2171,6.2242,6.2351,6.2222,6.2226,6.2245,6.2513,6.2522,6.2543,6.2357,6.236,6.2363,6.2505,0,6.1142,6.134,6.139,6.1559,6.1659,6.1685,6.178,6.1865,6.1917,6.2009,6.2065,6.2169,6.2149,6.219,6.226,6.2323,6.2406,6.2313,6.2444,6.2449,6.242,6.2568,6.2578,6.2707,6.2524,6.2527,6.2529,0,6.1316,6.1415,6.1594,6.1705,6.1749,6.1834,6.1946,6.2033,6.213,6.2163,6.2239,6.2265,6.2379,6.2335,6.2494,6.243,6.2487,6.2525,6.2532,6.2547,6.2496,6.2589,6.2749,6.2769,6.2559,6.2557,6.2555,0,6.1383,6.1559,6.169,6.1741,6.1874,6.1934,6.1991,6.2085,6.2152,6.2249,6.2293,6.2401,6.246,6.2543,6.2597,6.2559,6.2753,6.2712,6.2783,6.2782,6.2824,6.2821,6.2997,6.2857,6.2857,6.2857,6.2856,0,6.152,6.1629,6.1723,6.1803,6.1926,6.1983,6.2103,6.2161,6.2245,6.2337,6.2364,6.2449,6.2515,6.2609,6.2652,6.2779,6.2804,6.2834,6.2845,6.2833,6.283,6.2872,6.2865,6.2862,6.2861,6.286,6.2859,0,6.1616,6.1683,6.1827,6.1942,6.1974,6.2059,6.2157,6.2236,6.229,6.2406,6.2436,6.252,6.2633,6.2695,6.2835,6.2864,6.3006,6.301,6.2974,6.2979,6.3048,6.3042,6.3259,6.3291,6.3128,6.313,6.3131,0,6.17,6.1785,6.191,6.1975,6.2035,6.2138,6.2208,6.2267,6.2338,6.2456,6.2521,6.2636,6.2731,6.291,6.2982,6.309,6.3099,6.3168,6.3115,6.3102,6.3103,6.3098,6.3107,6.3177,6.3179,6.318,6.3181,0,6.1843,6.1873,6.1973,6.2086,6.2169,6.226,6.235,6.2401,6.2475,6.2554,6.2671,6.2745,6.289,6.3004,6.3119,6.3177,6.3192,6.3197,6.322,6.321,6.3186,6.3202,6.3001,6.3192,6.3191,6.319,6.3189,6.3189,6.1937,6.2015,6.2116,6.2228,6.2302,6.2387,6.2468,6.2533,6.2632,6.2757,6.2785,6.2909,6.3005,6.316,6.3222,6.3319,6.3306,6.3338,6.3347,6.3354,6.3358,6.3169,6.334,6.3339,6.3339,6.3339,6.3339,0,6.2084,6.2151,6.2253,6.238,6.2468,6.2476,6.2577,6.2649,6.2759,6.2848,6.2942,6.3078,6.3189,6.3271,6.3385,6.3447,6.3457,6.3475,6.3472,6.3485,6.3362,6.3332,6.3465,6.3465,6.3465,6.3465,6.3465,6.3465,6.217,6.2304,6.2345,6.2516,6.2582,6.2706,6.2763,6.2841,6.2913,6.3064,6.3157,6.3211,6.3298,6.3418,6.3521,6.3542,6.3583,6.3601,6.3623,6.3507,6.3494,6.3481,6.3453,6.3609,6.3609,6.3739,6.374,6.3741]}]]